Location: Croissy-Beaubourg
(48.8283°N, 2.6696°E)
Time: 03:32:38
(UTC+00:00)

Cosmos 2082 - Pass Details

Date: 23 August 2022
Orbit: 832 x 856 km, 71.0° (Epoch: 29 September)

Event Time Altitude Azimuth Distance (km) Brightness Sun altitude
Rises 00:24:23 0° 336° (NNW) 3,409 7.7 -29.2°
Reaches altitude 10° 00:27:29 10° 352° (N) 2,475 7.0 -29.2°
Maximum altitude 00:31:42 21° 40° (NE) 1,829 6.0 -29.0°
Drops below altitude 10° 00:35:55 10° 88° (E) 2,479 6.3 -28.9°
Sets 00:39:00 0° 105° (ESE) 3,415 6.9 -28.8°
